Location: Steilacoom
(47.1700°N, 122.5700°W)
Time: 18:31:53
(UTC-08:00)

ISS - Visible Passes

Search period start: 16 November 2019 00:00
Search period end: 26 November 2019 00:00
Orbit: 412 x 421 km, 51.6° (Epoch: 17 November)

Date Brightness Start Highest point End Pass type
(mag) Time Alt. Az. Time Alt. Az. Time Alt. Az.
20 Nov -1.0 18:46:33 10° S 18:46:48 11° S 18:46:48 11° S visible
21 Nov -1.5 17:59:14 10° SSE 18:00:43 13° SE 18:00:43 13° SE visible
22 Nov -2.1 18:45:35 10° SW 18:47:27 28° SSW 18:47:27 28° SSW visible
23 Nov -2.7 17:57:31 10° SSW 18:00:30 30° SE 18:01:10 28° ESE visible
23 Nov -0.3 19:33:47 10° W 19:34:05 12° W 19:34:05 12° W visible
24 Nov -2.0 17:09:43 10° S 17:12:13 20° SE 17:14:44 10° E visible
24 Nov -2.7 18:45:17 10° WSW 18:47:43 45° WSW 18:47:43 45° WSW visible
25 Nov -3.8 17:56:52 10° SW 18:00:12 69° SSE 18:01:18 38° E visible
25 Nov -0.3 19:33:53 10° W 19:34:12 12° W 19:34:12 12° W visible
